Location: Lombard
(41.8800°N, 88.0080°W)
Time: 05:03:33
(UTC-06:00)

Vanguard 1 Rocket - Visible Passes

Search period start: 28 January 2023 00:00
Search period end: 07 February 2023 00:00
Orbit: 650 x 4225 km, 34.3° (Epoch: 27 January)

Date Brightness Start Highest point End Pass type
(mag) Time Alt. Az. Time Alt. Az. Time Alt. Az.
28 Jan 11.1 18:39:28 10° W 19:01:50 52° SSW 19:24:38 10° SE visible
28 Jan 11.5 21:13:27 10° W 21:30:38 23° SW 21:45:48 10° S visible
29 Jan 11.1 17:26:05 10° W 17:47:01 61° SSW 18:11:57 10° SE visible
29 Jan 11.4 19:56:44 10° W 20:17:26 35° SW 20:36:51 10° SSE visible
30 Jan 11.3 18:42:04 10° W 19:03:25 46° SSW 19:25:55 10° SSE visible
30 Jan 11.7 21:17:51 10° W 21:31:50 18° SW 21:44:48 10° SSW visible
31 Jan 11.2 17:28:39 10° W 17:48:50 56° SSW 18:13:30 10° SE visible
31 Jan 11.6 19:59:52 10° W 20:18:45 29° SW 20:37:12 10° S visible
01 Feb 11.5 18:44:49 10° W 19:04:58 40° SW 19:26:51 10° SSE visible
01 Feb 11.9 21:24:21 10° WSW 21:33:05 13° SW 21:41:35 10° SW visible
02 Feb 11.3 17:31:17 10° W 17:50:37 50° SSW 18:14:48 10° SE visible
02 Feb 11.8 20:03:33 10° W 20:20:08 23° SW 20:36:49 10° S visible
03 Feb 11.7 18:47:49 10° W 19:06:31 34° SW 19:27:21 10° SSE visible
04 Feb 11.5 17:34:03 10° W 17:52:25 44° SSW 18:15:46 10° SSE visible
04 Feb 11.9 20:08:12 10° W 20:21:34 18° SW 20:35:17 10° SSW visible
05 Feb 11.9 18:51:11 10° W 19:08:06 28° SW 19:27:15 10° S visible
06 Feb 11.7 17:37:00 10° W 17:54:12 38° SW 18:16:20 10° SSE visible
06 Feb 12.1 20:15:21 10° WSW 20:23:06 12° SW 20:31:04 10° SSW visible
